2017-008AG

Last updated on Wed Mar 01 2017 00:15:03 GMT+0000 (Coordinated Universal Time)

1 41978U 17008AG 17059.22585330 .00001664 00000-0 76885-4 0 9990 2 41978 97.5095 120.8334 0008048 207.5135 152.5690 15.21589728 1805
UTC large
Height (km)
Speed (km/s)
/
Latitude / Longitude
Inclination (degrees)
Orbital Period (minutes)
Azimuth
Elevation
Range (km)
Doppler Factor

Next 0 passes for location: London (51.5072 / 0.1276)

Sorry there are no passes over London.